TimeMST,TemperatureF,Dew PointF,Humidity,Sea Level PressureIn,VisibilityMPH,Wind Direction,Wind SpeedMPH,Gust SpeedMPH,PrecipitationIn,Events,Conditions,WindDirDegrees,DateUTC
12:53 AM,62.1,44.1,52,29.90,10.0,South,6.9,-,N/A,,Clear,190,2013-08-08 07:53:00
1:53 AM,62.1,39.0,43,29.89,10.0,South,8.1,-,N/A,,Clear,190,2013-08-08 08:53:00
2:53 AM,63.0,34.0,34,29.88,10.0,SSW,8.1,-,N/A,,Clear,200,2013-08-08 09:53:00
3:53 AM,62.1,33.1,34,29.88,10.0,South,6.9,-,N/A,,Clear,190,2013-08-08 10:53:00
4:53 AM,59.0,37.9,46,29.89,10.0,Calm,Calm,-,N/A,,Clear,0,2013-08-08 11:53:00
5:53 AM,57.0,34.0,42,29.91,10.0,Calm,Calm,-,N/A,,Clear,0,2013-08-08 12:53:00
6:53 AM,63.0,35.1,35,29.92,10.0,South,3.5,-,N/A,,Clear,190,2013-08-08 13:53:00
7:53 AM,70.0,37.0,30,29.92,10.0,Calm,Calm,-,N/A,,Clear,0,2013-08-08 14:53:00
8:53 AM,78.1,34.0,20,29.91,10.0,Variable,5.8,-,N/A,,Clear,0,2013-08-08 15:53:00
9:53 AM,80.1,32.0,17,29.91,10.0,Variable,4.6,-,N/A,,Clear,0,2013-08-08 16:53:00
10:53 AM,82.9,32.0,16,29.90,10.0,South,5.8,-,N/A,,Clear,180,2013-08-08 17:53:00
11:53 AM,84.0,30.9,15,29.89,10.0,Calm,Calm,-,N/A,,Clear,0,2013-08-08 18:53:00
12:53 PM,86.0,30.9,14,29.88,10.0,ESE,8.1,-,N/A,,Clear,120,2013-08-08 19:53:00
1:53 PM,86.0,30.9,14,29.87,10.0,Variable,3.5,-,N/A,,Scattered Clouds,0,2013-08-08 20:53:00
2:53 PM,86.0,28.9,13,29.84,10.0,SE,9.2,16.1,N/A,,Scattered Clouds,130,2013-08-08 21:53:00
3:53 PM,88.0,28.0,12,29.83,10.0,SW,10.4,-,N/A,,Clear,230,2013-08-08 22:53:00
4:53 PM,86.0,28.9,13,29.83,10.0,South,11.5,-,N/A,,Clear,190,2013-08-08 23:53:00
5:53 PM,84.0,28.0,13,29.84,10.0,SSW,11.5,18.4,N/A,,Clear,210,2013-08-09 00:53:00
6:53 PM,82.0,28.0,14,29.83,10.0,SSW,10.4,-,N/A,,Clear,200,2013-08-09 01:53:00
7:53 PM,77.0,28.0,17,29.83,10.0,SSW,6.9,-,N/A,,Clear,210,2013-08-09 02:53:00
8:53 PM,72.0,32.0,23,29.84,10.0,South,6.9,-,N/A,,Clear,190,2013-08-09 03:53:00
9:53 PM,70.0,30.9,24,29.85,10.0,SSW,6.9,-,N/A,,Clear,200,2013-08-09 04:53:00
10:53 PM,69.1,30.9,24,29.85,10.0,South,3.5,-,N/A,,Clear,170,2013-08-09 05:53:00
11:53 PM,66.9,30.9,26,29.85,10.0,SSW,9.2,-,N/A,,Clear,210,2013-08-09 06:53:00